When you browse on this site, cookies collect data to enhance your experience and personalize the content and advertising you see.
Visit our Privacy Policy to learn more. By continuing to use the site, you agree to this use of cookies and data.
  • In Latvia
  • List of Countries
  • For 7 days
  • Water Temperature
  • Satellite Maps
  • Weather Map
  • Weather Widgets
  • user-avatar
    Login

    Hourly Weather Newark

    Today, 15 July, Monday

    Time Temperature Precipitation Wind Pressure Humidity
    00:00 +26°C° 0 mm 4 mps 761 mmHg 58%
    01:00 +25°C° 0 mm 2 mps 761 mmHg 61%
    02:00 +25°C° 0 mm 2 mps 761 mmHg 62%
    03:00 +24°C° 0 mm 2 mps 761 mmHg 63%
    04:00 +24°C° 0 mm 2 mps 761 mmHg 64%
    05:00 +24°C° 0 mm 2 mps 761 mmHg 61%
    06:00 +25°C° 0 mm 3 mps 762 mmHg 57%
    07:00 +26°C° 0 mm 1 mps 762 mmHg 58%
    08:00 +27°C° 0 mm 1 mps 762 mmHg 51%
    09:00 +29°C° 0 mm 1 mps 762 mmHg 44%
    10:00 +30°C° 0 mm 2 mps 762 mmHg 37%
    11:00 +31°C° 0 mm 2 mps 762 mmHg 34%
    12:00 +32°C° 0 mm 2 mps 761 mmHg 30%
    13:00 +34°C° 0 mm 2 mps 761 mmHg 27%
    14:00 +34°C° 0 mm 2 mps 761 mmHg 28%
    15:00 +34°C° 0 mm 2 mps 760 mmHg 28%
    16:00 +35°C° 0 mm 2 mps 760 mmHg 29%
    17:00 +34°C° 0 mm 2 mps 760 mmHg 32%
    18:00 +32°C° 0 mm 2 mps 761 mmHg 36%
    19:00 +31°C° 0 mm 2 mps 761 mmHg 39%
    20:00 +30°C° 0 mm 2 mps 761 mmHg 42%
    21:00 +29°C° 0 mm 2 mps 761 mmHg 44%
    22:00 +28°C° 0 mm 2 mps 761 mmHg 46%
    23:00 +28°C° 0 mm 2 mps 761 mmHg 47%

    Tomorrow, 16 July, Tuesday

    Time Temperature Precipitation Wind Pressure Humidity
    00:00 +27°C° 0 mm 1 mps 762 mmHg 47%
    01:00 +27°C° 0 mm 1 mps 762 mmHg 48%
    02:00 +26°C° 0 mm 1 mps 762 mmHg 49%
    03:00 +26°C° 0 mm 1 mps 762 mmHg 49%
    04:00 +26°C° 0 mm 1 mps 761 mmHg 50%
    05:00 +26°C° 0 mm 1 mps 762 mmHg 49%
    06:00 +25°C° 0 mm 0 mps 762 mmHg 48%
    07:00 +26°C° 0 mm 0 mps 762 mmHg 47%
    08:00 +29°C° 0 mm 1 mps 762 mmHg 43%
    09:00 +31°C° 0 mm 2 mps 762 mmHg 40%
    10:00 +32°C° 0 mm 2 mps 762 mmHg 37%
    11:00 +34°C° 0 mm 3 mps 762 mmHg 36%
    12:00 +35°C° 0 mm 3 mps 761 mmHg 35%
    13:00 +36°C° 0 mm 4 mps 761 mmHg 34%
    14:00 +36°C° 0 mm 4 mps 761 mmHg 34%
    15:00 +36°C° 0 mm 4 mps 760 mmHg 35%
    16:00 +36°C° 0 mm 4 mps 760 mmHg 36%
    17:00 +35°C° 0 mm 3 mps 760 mmHg 40%
    18:00 +34°C° 0 mm 3 mps 760 mmHg 45%
    19:00 +34°C° 0 mm 3 mps 761 mmHg 50%
    20:00 +33°C° 0.4 mm 3 mps 761 mmHg 55%
    21:00 +31°C° 0.4 mm 3 mps 761 mmHg 61%
    22:00 +30°C° 0.4 mm 3 mps 761 mmHg 66%
    23:00 +29°C° 0.6 mm 2 mps 760 mmHg 68%

    Day after tomorrow, 17 July, Wednesday

    Time Temperature Precipitation Wind Pressure Humidity
    00:00 +29°C° 0.6 mm 2 mps 760 mmHg 70%
    01:00 +28°C° 0.6 mm 2 mps 760 mmHg 72%
    02:00 +28°C° 0.5 mm 2 mps 760 mmHg 73%
    03:00 +28°C° 0.5 mm 2 mps 760 mmHg 75%
    04:00 +27°C° 0.5 mm 2 mps 760 mmHg 76%
    05:00 +28°C° 0.1 mm 2 mps 760 mmHg 75%
    06:00 +28°C° 0.1 mm 2 mps 760 mmHg 74%
    07:00 +29°C° 0.1 mm 2 mps 760 mmHg 73%
    08:00 +30°C° 0 mm 2 mps 760 mmHg 67%
    09:00 +31°C° 0 mm 2 mps 760 mmHg 61%
    10:00 +34°C° 0 mm 2 mps 759 mmHg 55%
    11:00 +32°C° 0 mm 2 mps 760 mmHg 55%
    12:00 +34°C° 0 mm 2 mps 760 mmHg 53%
    13:00 +34°C° 0 mm 3 mps 760 mmHg 51%
    14:00 +34°C° 0 mm 3 mps 759 mmHg 51%
    15:00 +34°C° 0 mm 3 mps 759 mmHg 51%
    16:00 +34°C° 0 mm 3 mps 758 mmHg 52%
    17:00 +32°C° 0.3 mm 2 mps 759 mmHg 56%
    18:00 +31°C° 0.3 mm 2 mps 759 mmHg 60%
    19:00 +30°C° 0.3 mm 2 mps 759 mmHg 64%
    20:00 +30°C° 0.8 mm 3 mps 759 mmHg 67%
    21:00 +29°C° 0.8 mm 4 mps 759 mmHg 69%
    22:00 +29°C° 0.8 mm 5 mps 758 mmHg 72%
    23:00 +28°C° 0.6 mm 5 mps 758 mmHg 74%

    18 July, Thursday

    Time Temperature Precipitation Wind Pressure Humidity
    00:00 +27°C° 0.6 mm 4 mps 758 mmHg 77%
    01:00 +27°C° 0.6 mm 4 mps 757 mmHg 79%
    02:00 +27°C° 1.5 mm 4 mps 757 mmHg 80%
    03:00 +26°C° 1.5 mm 3 mps 757 mmHg 82%
    04:00 +26°C° 1.5 mm 3 mps 756 mmHg 83%
    05:00 +27°C° 0.3 mm 3 mps 757 mmHg 82%
    06:00 +27°C° 0.3 mm 3 mps 757 mmHg 80%
    07:00 +27°C° 0.3 mm 3 mps 757 mmHg 79%
    08:00 +29°C° 0 mm 3 mps 757 mmHg 73%
    09:00 +30°C° 0 mm 2 mps 757 mmHg 66%
    10:00 +32°C° 0 mm 2 mps 757 mmHg 60%
    11:00 +34°C° 0.3 mm 2 mps 757 mmHg 57%
    12:00 +35°C° 0.3 mm 2 mps 756 mmHg 54%
    13:00 +35°C° 0.3 mm 3 mps 756 mmHg 51%
    14:00 +35°C° 0.1 mm 2 mps 756 mmHg 51%
    15:00 +35°C° 0.1 mm 2 mps 756 mmHg 50%
    16:00 +35°C° 0.1 mm 2 mps 756 mmHg 50%
    17:00 +35°C° 0.1 mm 2 mps 756 mmHg 53%
    18:00 +34°C° 0.1 mm 2 mps 756 mmHg 56%
    19:00 +32°C° 0.1 mm 2 mps 757 mmHg 58%
    20:00 +31°C° 0 mm 2 mps 757 mmHg 62%
    21:00 +31°C° 0 mm 2 mps 757 mmHg 65%
    22:00 +30°C° 0 mm 2 mps 757 mmHg 68%
    23:00 +29°C° 0 mm 2 mps 757 mmHg 71%

    19 July, Friday

    Time Temperature Precipitation Wind Pressure Humidity
    00:00 +29°C° 0 mm 2 mps 757 mmHg 74%
    01:00 +28°C° 0 mm 2 mps 757 mmHg 77%
    02:00 +28°C° 0 mm 2 mps 757 mmHg 79%
    03:00 +27°C° 0 mm 1 mps 758 mmHg 81%
    04:00 +27°C° 0 mm 1 mps 758 mmHg 83%
    05:00 +28°C° 0 mm 1 mps 758 mmHg 80%
    06:00 +28°C° 0 mm 1 mps 758 mmHg 78%
    07:00 +29°C° 0 mm 1 mps 758 mmHg 76%
    08:00 +30°C° 0 mm 1 mps 758 mmHg 70%
    09:00 +32°C° 0 mm 2 mps 758 mmHg 63%
    10:00 +35°C° 0 mm 3 mps 758 mmHg 57%
    11:00 +36°C° 0 mm 3 mps 758 mmHg 54%
    12:00 +37°C° 0 mm 3 mps 757 mmHg 51%
    13:00 +38°C° 0 mm 3 mps 757 mmHg 48%
    14:00 +38°C° 0 mm 3 mps 757 mmHg 47%
    15:00 +39°C° 0 mm 3 mps 756 mmHg 46%
    16:00 +39°C° 0 mm 3 mps 756 mmHg 44%
    17:00 +38°C° 0 mm 3 mps 756 mmHg 47%
    18:00 +38°C° 0 mm 4 mps 756 mmHg 50%
    19:00 +37°C° 0 mm 4 mps 756 mmHg 52%
    20:00 +37°C° 0 mm 4 mps 757 mmHg 55%
    21:00 +36°C° 0 mm 3 mps 757 mmHg 58%
    22:00 +35°C° 0 mm 3 mps 757 mmHg 61%
    23:00 +35°C° 0 mm 3 mps 757 mmHg 61%

    20 July, Saturday

    Time Temperature Precipitation Wind Pressure Humidity
    00:00 +34°C° 0 mm 3 mps 757 mmHg 61%
    01:00 +33°C° 0 mm 3 mps 756 mmHg 61%
    02:00 +32°C° 0 mm 2 mps 757 mmHg 63%
    03:00 +31°C° 0 mm 2 mps 757 mmHg 65%
    04:00 +31°C° 0 mm 2 mps 757 mmHg 66%
    05:00 +31°C° 0 mm 3 mps 757 mmHg 65%
    06:00 +33°C° 0 mm 3 mps 757 mmHg 64%
    07:00 +33°C° 0 mm 3 mps 757 mmHg 63%
    08:00 +35°C° 0 mm 3 mps 757 mmHg 58%
    09:00 +36°C° 0 mm 3 mps 757 mmHg 54%
    10:00 +38°C° 0 mm 3 mps 757 mmHg 49%
    11:00 +39°C° 0 mm 3 mps 757 mmHg 45%
    12:00 +40°C° 0 mm 3 mps 757 mmHg 41%
    13:00 +42°C° 0 mm 3 mps 757 mmHg 37%
    14:00 +42°C° 0 mm 4 mps 756 mmHg 37%
    15:00 +42°C° 0 mm 4 mps 756 mmHg 38%
    16:00 +42°C° 0 mm 5 mps 756 mmHg 38%
    17:00 +41°C° 0 mm 5 mps 756 mmHg 42%
    18:00 +40°C° 0 mm 5 mps 756 mmHg 47%
    19:00 +37°C° 0 mm 5 mps 756 mmHg 52%
    20:00 +37°C° 0 mm 4 mps 756 mmHg 54%
    21:00 +36°C° 0 mm 4 mps 756 mmHg 57%
    22:00 +35°C° 0 mm 3 mps 756 mmHg 60%
    23:00 +35°C° 0 mm 3 mps 756 mmHg 60%
    Show more